Probability
0 0 0 0 0 0 0 0 0 0 0 0 0 0 0 0 0 0 0 0 0 0 0 0 0 0 0 0 0 0 0 0 0 0 0 0 0 0 0 0 0 0 0
0 0 0 0 0 0 0 0 0 0 0 0 0 0 0 0 0 0 0 0 0 0 0 0 0 0 0 0 0 0 0 0 0 0 0 0 0 0 0 0 0 0 0
0 0 0 0 0 0 0 0 0 0 0 0 0 0 0 0 0 0 0 0 0 0 0 0 0 0 0 0 0 0 0 0 0 0 0 0 0 0 0 0 0 0 0
0 0 0 0 0 0 0 0 0 0 0 0 0 0 0 0 0 0 0 0 0 0 0 0 0 0 0 0 0 0 0 0 0 0 0 0 0 0 0 0 0 0 0
0 0 0 0 0 0 0 0 0 0 0 0 0 0 0 0 0 0 0 0 0 0 0 0 0 0 0 0 0 0 0 0 0 0 0 0 0 0 0 0 0 0 0
0 0 0 0 0 0 0 0 0 0 0 0 0 0 0 0 0 0 0 0 0 0 0 0 0 0 0 0 0 0 0 0 0 0 0 0 0 0 0 0 0 0 0
0 0 0 0 0 0 0 0 0 0 0 0 0 0 0 0 0 0 0 0 0 0 0 0 0 0 0 0 0 0 0 0 0 0 0 0 0 0 0 0 0 0 0
0 0 0 0 0 0 0 0 0 0 0 0 0 0 0 0 0 0 0 0 0 0 0 0 0 0 0 0 0 0 0 0 0 0 0 0 0 0 0 0 0 0 0
0 0 0 0 0 0 0 0 0 0 0 0 0 0 0 0 0 0 0 0 0 0 0 0 0 0 0 0 0 0 0 0 0 0 0 0 0 0 0 0 0 0 0
0 0 0 0 0 0 0 0 0 0 0 0 0 0 0 0 0 0 0 0 0 0 0 0 0 0 0 0 0 0 0 0 0 0 0 0 0 0 0 0 0 0 0
0 0 0 0 0 0 0 0 0 0 0 0 0 0 0 0 0 0 0 0 0 0 0 0 0 0 0 0 0 0 0 0 0 0 0 0 0 0 0 0 0 0 0
0 0 0 0 0 0 0 0 0 0 0 0 0 0 0 0 0 0 0 0 0 0 0 0 0 0 0 0 0 0 0 0 0 0 0 0 0 0 0 0 0 0 0
0 0 0 0 0 0 0 0 0 0 0 0 0 0 0 0 0 0 0 0 0 0 0 0 0 0 0 0 0 0 0 0 0 0 0 0 0 0 0 0 0 0 0
0 0 0 0 0 0 0 0 0 0 0 0 0 0 0 0 0 0 0 0 0 0 0 0 0 0 0 0 0 0 0 0 0 0 0 0 0 0 0 0 0 0 0
0 0 0 0 0 0 0 0 0 0 0 0 0 0 0 0 0 0 0 0 0 0 0 0 0 0 0 0 0 0 0 0 0 0 0 0 0 0 0 0 0 0 0
0 0 0 0 0 0 0 0 0 0 0 0 0 0 0 0 0 0 0 0 0 0 0 0 0 0 0 0 0 0 0 0 0 0 0 0 0 0 0 0 0 0 0
0 0 0 0 0 0 0 0 0 0 0 0 0 0 0 0 0 0 0 0 0 0 0 0 0 0 0 0 0 0 0 0 0 0 0 0 0 0 0 0 0 0 0
0 0 0 0 0 0 0 0 0 0 0 0 0 0 0 0 0 0 0 0 0 0 0 0 0 0 0 0 0 0 0 0 0 0 0 0 0 0 0 0 0 0 0
0 0 0 0 0 0 0 0 0 0 0 0 0 0 0 0 0 0 0 0 0 0 0 0 0 0 0 0 0 0 0 0 0 0 0 0 0 0 0 0 0 0 0
0 0 0 0 0 0 0 0 0 0 0 0 0 0 0 0 0 0 0 0 0 0 0 0 0 0 0 0 0 0 0 0 0 0 0 0 0 0 0 0 0 0 0
0 0 0 0 0 0 0 0 0 0 0 0 0 0 0 0 0 0 0 0 0 0 0 0 0 0 0 0 0 0 0 0 0 0 0 0 0 0 0 0 0 0 0
0 0 0 0 0 0 0 0 0 0 0 0 0 0 0 0 0 0 0 0 0 0 0 0 0 0 0 0 0 0 0 0 0 0 0 0 0 0 0 0 0 0 0
0 0 0 0 0 0 0 0 0 0 0 0 0 0 0 0 0 0 0 0 0 0 0 0 0 0 0 0 0 0 0 0 0 0 0 0 0 0 0 0 0 0 0
0 0 0 0 0 0 0 0 0 0 0 0 0 0 0 0 0 0 0 0 0 0 0 0 0 0 0 0 0 0 0 0 0 0 0 0 0 0 0 0 0 0 0
0 0 0 0 0 0 0 0 0 0 0 0 0 0 0 0 0 0 0 0 0 0 0 0 0 0 0 0 0 0 0 0 0 0 0 0 0 0 0 0 0 0 0
0 0 0 0 0 0 0 0 0 0 0 0 0 0 0 0 0 0 0 0 0 0 0 0 0 0 0 0 0 0 0 0 0 0 0 0 0 0 0 0 0 0 0
Height
5818 5814 5811 5807 5804 5800 5796 5792 5787 5783 5779 5775 5771 5767 5763 5760 5757 5754 5752 5749 5746 5744 5741 5738 5736 5733 5731 5728 5726 5725 5724 5723 5724 5725 5727 5730 5733 5736 5741 5746 5750 5755 5760
5811 5807 5803 5799 5795 5791 5787 5782 5778 5773 5768 5763 5759 5754 5750 5746 5743 5739 5736 5733 5730 5727 5723 5720 5717 5714 5710 5707 5704 5702 5699 5698 5698 5698 5700 5702 5705 5709 5713 5719 5725 5731 5737
5804 5799 5795 5791 5786 5781 5777 5772 5767 5762 5757 5751 5746 5741 5737 5732 5728 5724 5720 5716 5713 5709 5705 5701 5697 5693 5689 5685 5681 5677 5674 5671 5669 5669 5669 5671 5673 5676 5681 5686 5694 5702 5711
5795 5791 5786 5782 5777 5772 5766 5761 5756 5750 5745 5739 5734 5728 5723 5718 5713 5708 5703 5699 5694 5690 5685 5681 5676 5672 5667 5662 5657 5652 5647 5642 5639 5638 5637 5636 5637 5640 5644 5650 5658 5668 5679
5786 5782 5777 5772 5767 5761 5755 5750 5744 5738 5732 5727 5721 5714 5708 5703 5697 5692 5686 5681 5675 5670 5665 5660 5656 5650 5645 5639 5633 5627 5620 5614 5609 5605 5602 5600 5599 5599 5602 5607 5616 5628 5641
5777 5772 5767 5761 5756 5750 5744 5738 5732 5726 5719 5713 5707 5701 5694 5688 5681 5675 5669 5663 5657 5651 5645 5640 5634 5629 5623 5617 5610 5602 5594 5585 5578 5572 5566 5561 5557 5556 5556 5561 5569 5582 5598
5767 5761 5756 5750 5744 5738 5732 5725 5719 5712 5705 5699 5693 5687 5681 5674 5666 5659 5652 5645 5639 5632 5625 5619 5613 5607 5601 5595 5587 5577 5566 5556 5546 5537 5529 5522 5516 5512 5511 5513 5521 5533 5550
5756 5750 5744 5738 5732 5726 5719 5712 5706 5698 5692 5685 5678 5671 5665 5660 5654 5645 5636 5628 5620 5613 5606 5598 5591 5584 5577 5570 5562 5551 5538 5525 5513 5503 5493 5484 5477 5471 5469 5471 5477 5487 5502
5744 5738 5732 5726 5719 5713 5706 5699 5692 5685 5678 5671 5663 5656 5649 5643 5636 5630 5622 5611 5602 5594 5585 5577 5568 5560 5551 5543 5534 5523 5509 5495 5482 5470 5459 5450 5442 5436 5433 5434 5439 5449 5461
5731 5726 5719 5712 5706 5700 5693 5686 5678 5671 5663 5656 5649 5641 5633 5626 5619 5613 5606 5596 5586 5575 5565 5556 5546 5536 5526 5516 5506 5494 5480 5466 5453 5440 5429 5420 5412 5406 5403 5403 5408 5415 5427
5718 5712 5705 5699 5692 5686 5679 5671 5664 5657 5649 5641 5633 5625 5617 5609 5601 5595 5589 5579 5568 5557 5546 5535 5524 5513 5501 5490 5478 5466 5452 5439 5426 5414 5403 5394 5386 5380 5377 5377 5381 5388 5398
5705 5698 5691 5684 5678 5671 5664 5656 5649 5642 5634 5625 5617 5609 5601 5593 5584 5576 5570 5562 5552 5540 5526 5514 5502 5491 5479 5466 5454 5441 5428 5416 5404 5392 5381 5371 5363 5357 5354 5353 5357 5365 5376
5691 5683 5676 5670 5663 5656 5649 5641 5634 5626 5618 5610 5602 5593 5584 5576 5567 5558 5550 5542 5534 5524 5510 5495 5481 5468 5456 5444 5432 5419 5407 5395 5383 5371 5360 5351 5342 5336 5332 5332 5336 5345 5356
5676 5669 5662 5655 5648 5641 5633 5626 5618 5610 5602 5594 5586 5577 5568 5559 5550 5541 5531 5522 5515 5506 5494 5478 5462 5447 5434 5421 5409 5396 5386 5375 5363 5352 5342 5332 5323 5317 5314 5314 5319 5328 5338
5661 5654 5647 5640 5633 5626 5618 5610 5603 5595 5587 5578 5570 5561 5552 5543 5533 5524 5513 5503 5494 5486 5477 5462 5445 5430 5414 5401 5388 5375 5365 5356 5345 5335 5325 5315 5307 5301 5298 5298 5304 5314 5325
5645 5639 5632 5625 5618 5610 5602 5595 5587 5579 5571 5563 5554 5545 5536 5527 5517 5507 5496 5485 5474 5464 5455 5445 5429 5413 5397 5383 5369 5356 5346 5337 5328 5318 5308 5299 5291 5286 5283 5284 5290 5300 5313
5630 5624 5617 5609 5602 5595 5587 5579 5572 5564 5556 5548 5539 5530 5521 5510 5501 5490 5479 5468 5457 5445 5435 5426 5411 5397 5382 5367 5353 5339 5328 5318 5311 5302 5293 5284 5277 5272 5269 5270 5277 5287 5300
5615 5608 5601 5594 5586 5579 5571 5564 5556 5549 5541 5533 5524 5515 5505 5495 5485 5474 5463 5452 5441 5428 5416 5406 5395 5380 5366 5351 5338 5325 5313 5303 5294 5286 5277 5269 5263 5258 5255 5257 5264 5275 5289
5599 5592 5585 5578 5571 5563 5556 5549 5541 5534 5526 5518 5509 5500 5490 5480 5470 5459 5448 5437 5425 5413 5400 5388 5378 5365 5351 5337 5324 5312 5300 5290 5280 5271 5263 5255 5249 5245 5243 5244 5251 5263 5277
5583 5576 5569 5562 5555 5548 5541 5534 5526 5519 5512 5504 5495 5486 5476 5466 5456 5444 5433 5422 5410 5398 5386 5373 5362 5350 5337 5323 5309 5298 5288 5278 5267 5257 5249 5242 5236 5232 5230 5232 5239 5251 5266
5567 5560 5554 5547 5540 5533 5526 5519 5512 5505 5497 5489 5481 5471 5461 5452 5441 5430 5420 5408 5396 5384 5372 5359 5347 5335 5322 5308 5296 5284 5274 5265 5255 5243 5235 5229 5223 5219 5218 5220 5227 5239 5254
5551 5545 5539 5532 5525 5519 5512 5504 5497 5490 5483 5475 5466 5457 5448 5438 5428 5417 5406 5394 5382 5370 5358 5346 5334 5321 5309 5296 5284 5272 5261 5251 5244 5234 5222 5218 5211 5207 5206 5207 5215 5226 5242
5537 5531 5524 5517 5511 5505 5497 5490 5483 5476 5469 5461 5452 5443 5435 5425 5414 5404 5393 5382 5370 5357 5345 5333 5321 5309 5297 5286 5273 5263 5252 5241 5231 5222 5212 5207 5200 5196 5194 5195 5203 5214 5230
5523 5517 5510 5504 5497 5491 5483 5477 5470 5463 5455 5447 5439 5430 5422 5412 5402 5392 5382 5371 5359 5347 5335 5323 5311 5300 5287 5275 5263 5252 5241 5231 5222 5212 5202 5196 5191 5186 5184 5186 5192 5204 5220
5509 5503 5496 5490 5484 5477 5470 5463 5455 5449 5442 5434 5426 5417 5409 5400 5390 5380 5371 5361 5350 5338 5326 5314 5301 5289 5277 5265 5253 5243 5232 5222 5214 5205 5195 5188 5183 5178 5176 5178 5183 5194 5210
5496 5489 5483 5477 5470 5464 5456 5449 5442 5435 5428 5421 5413 5405 5397 5388 5378 5367 5358 5349 5339 5328 5317 5306 5294 5282 5270 5259 5247 5236 5225 5215 5206 5198 5189 5182 5176 5172 5170 5171 5176 5187 5202
Wind_Speed
28 30 31 33 35 36 38 39 39 41 42 43 44 46 47 48 49 50 51 52 53 54 55 56 58 60 61 63 65 67 69 71 73 76 78 80 82 83 84 86 86 87 86
31 33 35 37 39 40 42 43 43 44 44 45 46 47 49 50 51 52 53 55 56 58 59 60 62 63 65 67 69 71 73 75 77 79 81 83 85 87 90 93 94 94 94
35 36 38 40 42 44 46 47 48 48 48 48 49 50 51 53 54 55 56 58 59 61 63 64 66 67 69 71 73 74 77 79 81 83 85 87 89 91 94 97 100 102 102
39 40 42 43 45 47 49 51 52 52 52 51 52 52 54 55 57 58 60 61 63 65 66 68 70 71 72 74 75 78 80 82 84 86 89 91 93 95 98 101 104 107 110
42 44 45 47 48 50 52 54 55 55 55 54 54 55 56 57 59 60 62 64 66 68 70 71 72 73 74 76 78 80 82 85 87 90 93 95 96 98 101 104 107 111 114
45 47 49 50 52 53 55 57 58 58 57 57 57 57 58 60 61 62 64 66 68 70 72 73 73 74 75 77 79 82 84 87 90 93 95 96 98 100 101 103 106 111 117
49 50 52 53 55 56 58 60 60 60 59 59 59 59 59 60 62 64 65 67 69 71 72 73 74 75 76 77 80 83 86 89 92 94 95 96 97 96 96 97 102 109 116
52 54 55 56 58 59 61 62 62 60 60 60 60 61 61 62 61 63 65 67 69 71 72 73 75 76 78 79 81 84 87 89 91 92 92 92 90 89 88 89 93 101 110
56 57 58 59 60 62 63 64 63 61 61 61 61 62 63 64 65 64 65 67 70 71 72 74 76 78 80 82 84 85 86 87 88 88 86 84 82 79 79 79 83 89 98
59 59 60 61 62 63 64 64 63 61 61 62 62 63 64 65 65 65 66 68 69 71 73 75 78 80 83 85 85 85 85 84 83 82 80 77 73 70 68 68 70 76 86
61 62 63 63 63 64 64 64 62 61 62 62 63 63 64 65 66 66 66 67 69 71 74 76 79 82 84 86 85 84 82 80 77 76 74 70 66 62 60 59 61 67 76
63 63 64 65 65 65 65 64 63 62 62 62 63 64 64 65 66 67 67 67 68 71 74 77 80 82 83 84 83 81 79 75 73 70 68 65 61 56 54 54 58 62 69
62 63 64 65 65 65 65 64 64 63 62 62 63 63 64 65 67 68 69 68 69 70 73 76 80 82 82 82 81 79 75 71 68 65 63 61 57 52 50 53 58 63 67
62 63 64 65 66 66 65 65 63 63 62 62 63 63 64 66 67 69 70 70 70 70 72 75 78 80 81 80 79 76 72 67 64 61 59 57 53 50 47 52 59 65 70
62 64 64 65 66 66 65 64 63 62 62 62 62 63 65 66 68 70 70 71 71 71 72 73 76 76 77 78 76 74 69 64 60 57 56 54 50 47 45 50 58 65 71
63 64 65 65 66 65 64 64 62 61 61 61 62 64 65 68 69 69 70 71 72 73 73 72 73 73 74 74 73 71 67 62 57 55 53 51 48 44 43 48 58 66 73
63 64 65 65 65 64 64 63 61 60 60 60 62 64 66 68 68 69 70 70 71 73 74 73 72 71 70 70 69 67 64 60 56 53 51 49 46 42 41 47 58 67 74
64 64 64 64 64 63 63 61 60 59 59 60 62 64 66 67 68 68 69 69 70 72 74 74 70 69 68 67 66 63 60 58 56 53 51 49 45 40 39 47 59 68 75
63 63 63 62 62 61 60 59 58 57 58 60 62 64 65 66 66 67 68 68 69 71 72 72 69 67 65 64 62 59 56 55 54 52 50 47 43 39 37 46 59 70 77
62 62 61 60 59 58 58 57 56 57 58 59 62 63 64 65 65 66 66 67 68 69 70 70 68 65 63 62 60 57 54 53 52 51 48 45 41 37 34 43 58 71 80
59 58 57 56 56 56 55 55 55 56 57 59 61 62 63 63 64 65 65 65 67 68 68 68 66 64 63 61 59 56 54 52 49 49 47 43 40 35 33 40 57 72 82
54 53 53 54 54 53 53 53 54 55 57 58 60 61 62 62 63 64 64 64 65 66 66 65 64 63 61 59 57 54 53 51 48 46 46 40 38 33 31 37 55 71 84
49 49 50 52 51 51 51 52 53 55 56 57 59 60 60 61 62 62 62 62 62 62 63 62 62 60 59 57 55 52 51 49 47 44 43 38 35 31 29 34 52 71 84
48 49 50 50 50 50 51 53 54 55 56 57 58 59 59 60 60 61 60 59 59 59 58 58 59 57 56 54 52 51 50 47 44 42 40 35 32 29 27 32 49 69 84
48 48 49 50 50 52 53 53 55 55 56 57 57 58 58 59 59 60 59 58 57 56 55 55 56 55 53 52 51 50 48 45 41 38 37 33 28 25 23 29 45 66 83
48 49 50 50 51 52 54 55 55 55 55 56 56 57 57 58 58 58 57 56 55 54 52 53 52 51 50 48 48 48 46 43 39 35 33 29 25 21 19 26 42 63 80
Wind_Direction
315 316 317 318 317 316 314 311 308 304 300 296 292 289 287 285 285 285 284 284 284 284 283 282 282 281 280 279 278 276 273 271 268 265 261 258 256 253 251 248 248 249 249
312 314 316 317 318 317 316 314 311 308 304 300 296 292 290 288 287 287 287 287 287 287 286 286 286 285 285 284 282 281 279 277 274 271 267 264 261 257 254 250 246 246 246
310 311 313 314 315 316 316 315 313 310 307 303 299 295 293 291 290 289 289 289 289 289 289 289 289 288 288 287 286 285 284 282 279 276 274 271 267 263 258 253 248 244 243
309 310 310 311 313 314 314 313 312 310 307 304 301 298 295 293 292 292 292 291 291 291 291 291 291 291 291 290 290 289 288 286 284 282 280 277 273 269 263 257 252 246 242
308 309 309 310 311 311 312 312 311 309 307 304 302 300 298 296 295 294 294 293 293 293 293 293 293 293 293 293 292 292 291 290 288 287 285 282 277 273 268 262 255 248 242
306 307 308 309 309 310 310 310 310 308 306 304 302 301 300 298 297 296 295 295 295 295 295 295 295 295 295 295 295 295 294 293 292 290 288 284 281 276 270 262 254 247 240
304 306 306 307 308 308 309 309 309 307 305 303 302 301 300 299 298 297 296 296 296 297 297 297 297 297 297 297 297 298 297 296 295 292 290 286 283 277 270 261 252 243 237
303 304 305 305 306 307 307 308 308 306 305 303 302 300 299 297 296 296 297 297 298 298 299 300 300 300 300 300 300 300 300 298 296 294 291 288 283 277 269 260 251 242 235
301 302 303 303 304 305 306 306 306 305 304 303 302 301 299 298 297 297 297 298 300 300 302 303 303 303 303 303 304 303 302 300 297 295 292 289 284 277 269 260 252 243 235
300 301 301 301 303 304 304 305 305 304 304 303 302 301 300 299 298 298 299 299 300 302 303 304 305 305 305 306 306 305 303 301 299 296 294 290 285 277 269 259 250 241 234
298 299 299 300 301 302 303 304 304 304 304 303 302 301 300 300 300 300 301 302 302 303 305 306 306 307 307 308 307 307 305 302 300 298 295 291 286 278 268 255 243 235 229
297 297 297 298 300 301 302 303 304 304 304 303 303 302 302 302 302 302 303 303 304 305 306 307 307 308 308 308 308 307 305 304 301 298 296 293 286 277 263 247 234 227 222
295 296 296 298 300 301 302 303 304 304 303 303 303 303 303 303 303 304 304 304 305 306 307 308 309 309 309 309 309 308 306 304 302 299 297 294 287 276 260 241 228 219 214
295 295 297 298 300 301 302 303 303 303 303 303 303 303 304 304 304 305 306 306 306 308 309 310 310 310 310 310 310 309 307 305 303 300 298 296 289 277 260 239 225 214 209
294 296 297 299 300 301 302 302 303 302 302 303 303 303 304 305 305 306 307 307 308 309 310 311 311 311 311 311 310 309 308 306 304 302 300 297 291 278 260 238 222 212 207
295 297 298 299 299 300 301 302 302 302 302 303 302 303 304 305 306 307 307 308 309 311 312 313 313 312 312 311 311 310 309 307 305 304 301 298 293 280 261 236 218 210 205
297 298 299 299 300 300 300 300 301 301 301 302 302 303 304 305 307 307 308 309 310 311 313 315 314 314 313 312 311 310 310 308 307 305 302 299 294 281 262 234 217 208 203
297 298 299 299 299 299 299 299 299 299 300 301 302 304 305 306 307 307 308 310 311 312 314 315 316 315 315 313 312 311 310 308 308 306 303 300 294 282 262 233 216 207 200
296 297 297 298 298 298 298 298 297 297 298 300 302 303 304 306 307 308 309 310 312 313 314 316 317 316 316 315 313 312 310 309 308 306 303 300 294 282 262 232 215 206 200
296 296 296 297 297 297 297 297 297 297 298 299 302 303 304 306 307 308 310 311 313 314 315 316 317 317 317 317 315 314 313 311 310 307 304 301 295 283 265 233 215 206 199
295 295 295 295 295 296 296 296 297 298 298 299 301 303 305 306 307 309 310 312 313 314 316 317 318 319 320 319 318 316 315 314 313 309 305 302 295 284 265 235 214 205 199
294 295 295 295 295 296 295 294 296 297 298 300 301 303 305 307 308 309 311 313 314 316 317 319 320 321 321 320 319 318 317 316 314 309 306 304 296 286 265 236 214 204 198
294 295 295 296 296 295 294 294 296 297 299 299 301 303 305 307 308 309 311 313 315 317 318 319 321 321 321 321 320 319 318 317 315 311 307 305 297 288 265 236 213 203 198
294 295 295 296 296 295 295 295 296 297 298 299 300 302 305 307 308 310 312 314 316 317 318 319 320 321 322 322 321 321 320 319 317 313 309 306 298 288 266 235 213 203 198
295 295 295 296 296 296 296 296 296 297 297 299 300 302 305 307 308 310 312 315 317 318 319 320 321 322 323 323 322 323 322 321 320 316 311 308 301 290 266 233 213 202 197
296 296 296 296 296 296 296 297 297 297 298 299 300 303 305 307 308 310 313 316 318 319 320 321 322 323 323 323 323 324 324 323 322 319 314 311 304 292 265 230 211 201 196